Wind_Speed
28 28 29 30 31 32 33 34 34 35 35 36 37 37 38 38 39 40 41 43 45 46 48 50 51 52 52 53 54 55 57 59 61 63 64 64 64 64 64 64 64 64
29 29 30 30 31 32 33 34 35 35 36 36 37 37 38 39 40 41 43 44 45 47 49 51 52 53 53 55 56 57 59 60 62 64 65 65 65 66 66 65 65 65
31 31 31 31 32 32 32 33 34 35 36 37 38 39 39 40 42 43 45 46 46 47 49 51 53 53 54 55 56 58 60 62 64 65 66 67 67 68 68 67 67 67
32 33 34 34 34 33 33 33 34 35 36 37 38 39 41 42 44 45 46 48 48 49 51 52 53 55 55 56 57 59 62 64 66 67 68 69 69 70 70 69 69 69
33 35 36 37 36 35 34 35 35 36 37 38 39 41 42 43 44 46 47 48 49 51 53 54 55 56 58 58 59 61 64 67 69 69 70 71 71 72 73 72 71 70
34 35 37 39 38 37 36 36 37 38 39 40 41 43 44 45 46 47 48 49 51 53 55 57 57 58 59 61 63 64 67 70 72 72 73 73 73 74 75 74 73 71
35 35 38 39 39 38 37 37 38 39 39 40 42 43 44 45 47 48 50 51 52 54 56 59 60 60 61 63 66 68 70 72 73 74 75 75 76 76 77 76 75 73
35 35 37 39 39 38 38 38 39 39 40 41 42 43 44 45 47 49 52 54 55 56 58 60 61 62 62 64 67 70 72 74 75 76 77 77 78 78 78 78 77 74
35 35 37 40 40 39 39 39 40 41 42 43 43 44 46 47 49 51 54 56 58 59 60 62 62 63 64 67 70 72 74 75 76 77 78 79 79 80 80 80 79 76
36 36 38 40 41 40 40 40 41 42 43 44 45 47 49 50 52 55 57 59 60 61 63 64 64 65 67 70 73 74 76 77 78 79 80 80 81 82 82 82 81 78
37 37 38 41 41 41 41 41 42 43 45 46 47 49 51 52 55 57 59 61 63 64 65 65 66 68 70 73 75 77 78 80 81 82 82 82 82 83 83 83 82 79
37 38 39 42 43 42 41 42 43 45 47 48 50 51 52 54 57 60 62 63 65 66 67 68 69 71 73 75 77 79 80 82 84 85 85 85 84 84 84 83 82 80
39 40 41 43 44 43 43 43 44 46 48 50 51 52 54 58 61 62 64 65 66 67 69 71 72 74 76 78 79 81 83 84 86 86 86 86 86 85 85 84 82 80
40 41 42 44 46 45 44 45 46 48 50 51 52 54 58 61 63 64 65 66 67 68 71 73 76 78 80 81 82 82 84 86 87 87 88 88 87 87 86 84 82 80
42 43 44 46 47 46 46 47 48 49 50 52 54 57 60 63 64 66 67 67 69 71 73 76 79 82 83 84 85 85 86 87 88 89 89 89 89 88 86 84 81 79
43 44 45 47 47 47 47 48 49 50 51 53 56 59 62 64 66 66 67 69 71 74 77 80 82 85 86 87 88 88 88 89 90 90 90 90 89 88 85 83 80 78
43 45 46 47 47 46 46 47 49 51 53 55 58 61 64 66 67 68 69 71 74 77 80 83 86 88 89 90 91 91 91 91 92 92 92 91 89 87 84 81 79 76
43 45 46 46 45 46 46 48 51 53 55 57 59 62 66 68 70 71 72 74 77 80 83 86 88 90 92 93 93 94 94 94 94 94 93 91 88 86 83 80 77 75
44 46 46 46 46 47 48 51 53 55 56 56 58 62 66 69 71 73 74 77 80 83 86 88 91 93 95 95 96 96 96 96 96 95 93 90 87 84 81 78 76 74
46 47 47 47 48 49 51 53 55 56 56 57 59 63 68 71 73 75 77 80 83 85 88 91 94 96 97 98 98 98 98 97 97 95 93 89 86 83 80 77 74 72
47 48 48 48 49 51 52 55 57 58 58 59 61 66 71 74 76 78 80 83 85 88 90 94 97 98 100 100 100 101 100 98 97 95 91 88 84 81 78 76 73 71
48 48 48 49 51 52 54 57 59 60 61 61 64 69 73 77 79 81 83 86 88 91 93 97 99 101 102 102 103 103 102 99 96 94 90 87 83 80 77 74 72 69
48 48 49 50 52 54 56 59 61 62 63 63 66 71 76 79 81 83 85 88 90 93 96 99 102 103 104 104 105 105 102 99 95 93 90 87 82 79 76 74 71 68
47 48 49 51 53 56 58 61 63 64 65 66 69 73 78 81 83 85 87 89 92 95 99 102 104 105 105 106 106 105 102 98 94 91 89 85 81 78 75 73 70 66
47 48 50 53 55 57 60 62 64 66 67 68 71 76 80 82 84 87 90 91 94 98 101 105 106 106 106 107 107 105 101 97 93 90 87 84 79 76 74 71 67 64
48 50 52 55 57 59 62 64 65 67 68 70 73 78 81 83 86 89 92 94 97 101 104 108 109 109 108 108 107 104 100 96 92 89 86 82 77 73 71 68 65 60
Wind_Direction
12 11 11 10 10 9 9 8 8 7 6 6 5 5 4 3 2 1 360 359 359 359 358 358 358 357 356 355 355 354 353 353 353 353 352 352 352 352 351 349 348 348
8 6 5 4 4 3 3 3 3 3 3 3 3 2 1 0 359 358 357 356 356 356 356 355 354 355 354 353 353 352 352 352 351 351 351 351 350 350 350 349 347 346
6 4 2 1 0 360 359 358 358 359 359 360 359 359 359 357 356 355 354 354 353 354 354 353 352 352 352 352 351 350 350 350 350 350 350 349 349 349 349 348 346 345
1 360 359 358 357 357 356 355 355 355 356 356 356 356 356 355 353 352 351 351 351 352 353 353 351 350 350 351 350 349 348 349 350 349 349 348 348 347 347 347 346 344
356 355 355 355 354 354 353 353 353 354 354 354 354 354 353 352 352 351 350 350 349 350 352 352 351 349 348 349 349 349 347 347 348 349 348 347 346 346 346 346 345 344
354 353 353 353 353 352 351 351 352 352 352 352 351 351 351 351 351 350 350 349 348 348 349 350 349 348 347 347 348 348 347 347 347 347 347 346 345 345 344 344 344 343
352 351 351 352 352 351 351 350 350 350 350 350 349 348 349 349 349 348 348 348 348 347 347 348 347 347 346 346 347 347 347 346 346 346 345 344 344 343 343 343 343 343
351 349 349 350 351 351 350 350 350 350 349 349 348 347 347 348 347 346 345 346 346 347 346 346 345 345 345 346 346 346 345 345 345 345 344 343 342 342 342 341 342 342
348 346 347 349 349 349 349 350 350 349 349 349 348 347 347 347 346 345 344 345 346 346 345 345 344 344 344 345 345 345 344 344 343 343 343 342 341 341 341 340 341 341
345 344 345 347 348 347 347 347 348 348 348 347 347 347 346 346 345 345 345 345 345 345 344 344 343 343 344 344 344 344 343 342 342 342 342 341 340 340 340 339 339 339
343 342 343 345 346 345 344 344 344 345 346 346 346 346 345 345 345 346 346 346 345 344 343 343 343 343 344 344 344 343 342 342 341 341 341 341 340 339 339 338 338 338
341 340 342 343 344 342 341 340 341 343 343 344 345 345 345 346 347 347 346 345 344 343 342 342 342 343 343 344 343 343 342 341 341 341 340 340 339 338 337 337 336 336
339 339 339 341 341 340 339 339 340 341 342 343 344 345 346 347 348 347 346 345 344 342 341 341 342 343 343 343 343 342 341 341 340 340 339 339 338 337 337 336 336 335
337 337 337 338 339 339 339 339 340 341 342 343 344 346 347 348 348 347 346 344 343 342 341 341 342 342 343 343 343 342 341 340 340 339 339 338 337 337 336 336 335 334
335 336 336 337 338 339 340 341 341 342 342 343 345 347 348 348 347 346 345 343 342 341 341 341 342 342 342 342 342 341 341 340 339 339 338 337 337 336 336 335 334 333
334 335 335 336 338 340 342 342 342 341 341 343 346 348 348 347 347 346 344 342 341 341 341 342 343 343 342 342 341 341 340 340 339 338 337 337 336 335 335 334 333 332
333 334 335 336 338 340 341 341 340 340 342 344 346 347 347 346 346 345 343 342 341 341 342 343 343 343 342 341 341 340 340 339 339 338 337 337 336 335 334 333 332 331
333 333 334 335 337 338 338 339 340 342 343 344 345 346 345 345 345 344 343 342 341 342 343 343 343 342 341 341 340 340 339 339 339 337 337 336 335 334 333 333 332 330
332 332 333 334 336 337 338 340 342 343 343 343 344 344 344 345 344 343 342 341 342 343 343 343 343 342 341 340 340 339 339 339 339 337 336 335 334 333 333 332 331 329
330 331 333 335 336 337 338 340 341 341 341 341 342 343 344 344 343 342 342 342 342 343 343 343 342 342 341 340 339 339 339 339 338 337 335 335 334 333 332 331 330 328
330 332 335 336 336 336 337 338 339 340 340 340 341 342 343 343 342 342 342 342 342 342 342 342 342 341 340 340 339 339 338 338 338 336 335 334 333 332 332 330 329 328
332 334 335 335 334 334 335 338 339 340 340 340 340 341 341 341 342 342 342 342 342 342 342 342 341 341 340 339 339 339 338 338 337 335 334 333 333 332 331 330 328 327
333 334 333 332 331 332 335 338 340 340 339 339 339 340 340 341 341 341 342 342 342 342 342 341 341 340 340 339 339 338 338 337 336 335 334 333 332 332 331 329 328 326
332 331 330 329 329 332 336 339 340 339 339 338 338 339 339 340 341 341 341 341 341 342 342 341 340 340 340 339 339 338 337 336 336 335 334 332 332 331 330 328 327 326
329 328 328 328 330 334 337 339 339 338 338 338 338 338 339 339 340 340 340 341 341 342 341 340 340 340 340 339 339 338 337 336 335 334 333 332 331 331 329 327 326 326
328 327 327 328 331 335 337 337 337 337 337 337 337 337 338 339 340 340 340 341 342 342 340 340 340 340 340 339 339 338 336 335 335 334 333 331 331 331 328 326 325 326
Height
10698 10696 10693 10691 10688 10685 10682 10680 10677 10674 10671 10668 10664 10661 10658 10654 10651 10648 10644 10640 10637 10633 10629 10625 10621 10617 10613 10608 10604 10599 10594 10589 10584 10579 10574 10569 10564 10559 10554 10549 10543 10538
10698 10696 10693 10691 10688 10685 10682 10679 10676 10674 10671 10668 10665 10661 10658 10655 10651 10647 10644 10640 10636 10632 10628 10624 10619 10615 10611 10606 10601 10596 10592 10587 10582 10576 10571 10566 10561 10556 10551 10545 10539 10534
10698 10696 10693 10691 10688 10685 10682 10679 10676 10673 10670 10667 10663 10660 10657 10654 10650 10646 10643 10639 10635 10631 10627 10623 10618 10614 10609 10605 10599 10594 10589 10584 10579 10573 10568 10562 10557 10552 10547 10542 10535 10529
10697 10695 10692 10690 10687 10684 10681 10679 10676 10673 10669 10666 10663 10659 10656 10652 10648 10645 10641 10637 10633 10629 10625 10621 10616 10611 10607 10602 10597 10591 10585 10581 10576 10570 10564 10558 10553 10547 10542 10537 10531 10524
10696 10694 10691 10689 10686 10683 10680 10677 10674 10671 10668 10665 10662 10658 10655 10651 10647 10643 10639 10635 10630 10625 10621 10617 10612 10607 10602 10598 10594 10589 10582 10575 10571 10566 10560 10554 10548 10542 10537 10532 10527 10520
10695 10693 10690 10687 10685 10682 10679 10676 10673 10669 10666 10662 10659 10655 10651 10648 10644 10640 10636 10632 10627 10622 10617 10613 10609 10604 10598 10593 10588 10583 10578 10571 10565 10560 10555 10549 10543 10538 10532 10526 10521 10516
10694 10692 10689 10687 10684 10681 10678 10675 10671 10668 10664 10661 10657 10653 10649 10645 10641 10637 10633 10630 10625 10620 10614 10610 10605 10601 10595 10589 10583 10578 10573 10567 10562 10556 10550 10544 10538 10532 10527 10521 10516 10511
10694 10691 10688 10686 10683 10680 10676 10673 10670 10666 10663 10659 10656 10652 10648 10644 10640 10636 10631 10627 10622 10618 10613 10608 10603 10598 10592 10587 10581 10574 10568 10563 10557 10552 10545 10539 10533 10527 10521 10516 10511 10505
10693 10690 10687 10684 10681 10677 10674 10671 10667 10664 10661 10657 10654 10651 10647 10642 10638 10634 10630 10625 10619 10614 10610 10605 10600 10595 10589 10583 10577 10571 10565 10559 10554 10548 10541 10534 10527 10521 10515 10508 10503 10498
10691 10688 10685 10682 10678 10675 10672 10668 10665 10662 10659 10656 10652 10649 10644 10640 10636 10631 10626 10621 10615 10610 10606 10601 10596 10591 10585 10579 10573 10566 10560 10554 10549 10544 10537 10530 10522 10514 10508 10501 10496 10492
10689 10686 10683 10680 10677 10673 10670 10667 10664 10661 10658 10655 10650 10646 10642 10637 10632 10627 10621 10616 10611 10606 10601 10597 10592 10587 10581 10575 10568 10561 10554 10547 10541 10535 10530 10524 10516 10509 10501 10495 10489 10485
10687 10684 10681 10678 10675 10672 10669 10666 10663 10659 10656 10652 10648 10643 10639 10634 10629 10623 10617 10611 10606 10601 10596 10591 10587 10582 10576 10570 10564 10556 10549 10542 10535 10528 10522 10516 10510 10503 10496 10490 10483 10477
10685 10682 10679 10676 10673 10670 10667 10664 10661 10657 10653 10648 10644 10640 10635 10629 10623 10618 10613 10607 10602 10597 10592 10586 10581 10576 10571 10565 10559 10551 10544 10537 10530 10523 10516 10509 10504 10498 10491 10484 10477 10471
10682 10680 10677 10674 10671 10668 10665 10661 10657 10653 10649 10644 10640 10635 10630 10624 10618 10613 10608 10604 10599 10594 10588 10582 10576 10570 10565 10559 10554 10547 10540 10532 10525 10518 10510 10503 10497 10491 10484 10477 10471 10465
10680 10677 10674 10671 10668 10664 10661 10657 10652 10648 10644 10641 10636 10631 10625 10620 10615 10610 10605 10600 10595 10590 10584 10578 10571 10565 10558 10553 10547 10541 10535 10528 10520 10513 10505 10497 10490 10483 10477 10470 10464 10458
10678 10675 10672 10668 10665 10661 10657 10652 10649 10645 10642 10637 10632 10627 10622 10617 10613 10608 10603 10597 10592 10586 10579 10573 10566 10559 10552 10547 10540 10534 10528 10522 10515 10507 10499 10491 10484 10477 10471 10464 10457 10451
10676 10673 10669 10666 10662 10658 10655 10652 10648 10644 10639 10634 10629 10624 10619 10615 10610 10605 10600 10594 10588 10581 10574 10567 10560 10553 10546 10540 10534 10528 10522 10515 10508 10500 10492 10484 10477 10470 10464 10458 10451 10443
10674 10670 10667 10664 10661 10658 10655 10651 10646 10641 10635 10630 10625 10621 10616 10611 10606 10601 10596 10590 10584 10576 10569 10563 10556 10549 10541 10534 10528 10521 10514 10508 10500 10491 10484 10477 10470 10462 10456 10450 10444 10436
10671 10668 10665 10662 10658 10655 10651 10646 10641 10637 10633 10629 10625 10620 10615 10609 10604 10598 10592 10586 10580 10572 10565 10558 10551 10544 10536 10528 10521 10514 10506 10499 10492 10483 10476 10469 10462 10455 10449 10443 10437 10430
10669 10666 10662 10658 10654 10651 10647 10643 10639 10635 10631 10627 10623 10618 10613 10607 10601 10595 10589 10581 10574 10567 10560 10553 10546 10538 10530 10522 10514 10507 10499 10492 10484 10475 10467 10461 10454 10448 10441 10435 10429 10423
10665 10661 10658 10654 10651 10647 10644 10640 10637 10632 10628 10623 10618 10613 10608 10602 10597 10590 10583 10576 10569 10562 10554 10547 10540 10532 10524 10515 10507 10499 10491 10484 10476 10468 10460 10454 10448 10441 10435 10428 10421 10415
10659 10656 10653 10650 10647 10644 10641 10637 10632 10627 10622 10617 10612 10607 10602 10597 10591 10584 10577 10570 10562 10555 10548 10541 10534 10526 10517 10509 10499 10491 10483 10476 10469 10460 10453 10446 10440 10434 10427 10421 10414 10408
10655 10652 10649 10647 10644 10641 10637 10632 10627 10621 10616 10612 10607 10603 10597 10591 10584 10578 10571 10564 10557 10550 10542 10535 10528 10520 10511 10502 10493 10483 10475 10468 10461 10453 10445 10437 10431 10426 10419 10413 10407 10401
10653 10650 10647 10644 10641 10637 10632 10627 10622 10617 10612 10607 10603 10598 10592 10586 10580 10573 10567 10560 10553 10545 10537 10529 10522 10514 10505 10496 10486 10477 10468 10460 10453 10446 10438 10430 10424 10418 10411 10405 10399 10394
10650 10647 10644 10641 10637 10633 10628 10623 10618 10613 10608 10604 10599 10594 10587 10581 10574 10568 10561 10554 10547 10539 10530 10522 10515 10507 10498 10489 10479 10470 10461 10453 10445 10438 10430 10423 10417 10411 10404 10398 10392 10388
10647 10644 10641 10637 10633 10628 10624 10619 10615 10610 10606 10601 10596 10590 10583 10576 10569 10562 10555 10548 10540 10532 10524 10515 10506 10498 10491 10483 10473 10463 10453 10445 10438 10430 10422 10415 10410 10405 10398 10391 10386 10382